DELTA 1 R/B, 575

Orbit data source: Space-Track

DELTA 1 R/B, 575 is space debris in HEO originally from a launch on Tue, 07 May 1963 UTC launched from the Air Force Eastern Test Range (AFETR). Debris objects in space refer to the collection of defunct objects orbiting the Earth. Examples of debris include non-operational satellites, rocket bodies, and fragments generated from explosions, collisions, or faulty payload assembly.

Loading next visibility...
Identifier
575, 1963-013B
Orbit
HEO
Country
Flag of USUS
Related business
Manufacturer
ABL
Mission
Spacecraft
Bus & Motor
ALTAIR, Unknown motor
Mass
24 kg wet, 24 kg dry
Launch date (UTC)
1963-05-07 (63 years ago)
Launch vehicle
Unknown
Launch site
Air Force Eastern Test Range (AFETR)
Object type
Payload
Rocket body
Debris
Shape & HBR
Unknown
Radar Cross Section
Medium (>0.1 m² and <1 m²)

Expand to show TLE details & history
Last TLE update: 1 day ago

TLE from 1 day ago
0 DELTA 1 R/B
1 00575U 63013B   26067.59080032  .00000034  00000-0  92279-3 0  9997
2 00575  42.7733  31.9017 4005446  92.7071  36.2048  6.40264747469546
Epoch: 2026-03-08T14:10Z
TLE epoch observation values (Epoch: 2026-03-08T14:10:45.147Z)
Latitude
6.93715°
Longitude
-174.60748°
Altitude
3,057.512 km
Speed
7.209 km/s
True Right ascension
13h 37m 30s
True Declination
6° 54' 22"
Sunlit
Object was in full shadow at epoch
Visualization orbit readout
Latitude
Unknown
Longitude
Unknown
Altitude
Unknown
Speed
Unknown
Apparent Right ascension
Unknown
Apparent Declination
Unknown
Sunlit
N/A
Visualization observer readout
Local Sidereal Time
19:39:48
Azimuth
Unknown
Elevation
Unknown
Doppler factor
Unknown
Orbital elements
Apogee altitude
10,781.591 km
Perigee altitude
966.5 km
Semi-major axis
12,252.182 km
Eccentricity
0.40054
Inclination
42.7733°
RAAN
31.9017°
Arg. of periapsis
92.7071°
True anomaly
77.02428°
Mean anomaly
36.2048°
Eccentric anomaly
55.00512°
Mean motion
1.60038 °/min
Orbital period
224.95 mins
BSTAR
0.00092279
Loading maneuver chart data...
Computing Atmospheric mass density...
Loading historical data...
Loading historical data...
Loading historical data...
Loading historical data...
Loading historical data...
Loading historical data...
Loading historical data...
Other satellites on launch #13 in the year 1963 (1963-05-07 UTC)

Documentation

Showing up to 5 results
|